{"data":{"norad_id":69466,"epoch":"2026-09-19T04:35:00.662496Z","epoch_age_seconds":138523,"freshness":"FRESH","line1":"1 69466U 26127Z   26262.19097989  .00015558  00000+0  47093-3 0  9998","line2":"2 69466  53.1586 171.6354 0004147  74.1878 285.9582 15.34376727 15997","mean_motion":15.34376727,"eccentricity":0.0004147,"inclination_deg":53.1586,"raan_deg":171.6354,"arg_perigee_deg":74.1878,"mean_anomaly_deg":285.9582,"bstar":0.00047093,"rev_number":1599,"period_min":93.849181538062,"perigee_km":459.93548820827,"apogee_km":465.6093384757,"semimajor_km":6840.909413342,"source":"CELESTRAK","updated_at":"2026-09-20T09:00:44.203665Z"}}